カタログに戻る

STARLINK-4705

運用中通信VLEO
NORAD 53723·PAYLOAD·🇺🇸 United States

打ち上げ Sep 5, 2022 から Cape Canaveral Space Force Station

Loading…

次のパス (今後24時間)

TLE

最新Source: CelesTrak SupGP

元期: Sep 14, 2026, 21:39 UTC

1 53723C 22107Z   26257.90256944 -.00004879  00000+0 -13961-3 0  2572
2 53723  53.1571 111.8700 0001333  84.0555 233.2861 15.35396227    18

AllMySatでSTARLINK-4705をリアルタイム追跡

Download on the App Store